AAL1478 KTPA-KPBI

Flight info

Callsign AAL1478
Flight time 0h 34m
Altitude 16000
Route GANDY8 SABEE VUUDU1
Aircraft B738/M-SDE2E3FGHIRWXY/LB1

Departure

Time 2026-04-25 23:12
Airport Tampa International Airport (KTPA)

Arrival

Time 2026-04-25 23:47
Airport Palm Beach International Airport (KPBI)
Time Latitude Longitude Altitude Speed Heading
2026-04-25 23:00 27.98400 -82.53745 21 ft 0 kts 159°
2026-04-25 23:09 27.98409 -82.53748 21 ft 3 kts 159°
2026-04-25 23:09 27.98439 -82.53764 21 ft 5 kts 141°
2026-04-25 23:09 27.98436 -82.53803 21 ft 7 kts 48°
2026-04-25 23:09 27.98453 -82.53789 21 ft 15 kts 33°
2026-04-25 23:10 27.98616 -82.53794 21 ft 28 kts 327°
2026-04-25 23:10 27.98715 -82.53944 19 ft 24 kts 353°
2026-04-25 23:10 27.98887 -82.53944 18 ft 24 kts
2026-04-25 23:10 27.99060 -82.53936 19 ft 25 kts
2026-04-25 23:11 27.99233 -82.53937 21 ft 23 kts 342°
2026-04-25 23:11 27.99257 -82.54094 21 ft 21 kts 245°
2026-04-25 23:11 27.99115 -82.54140 19 ft 23 kts 180°
2026-04-25 23:11 27.99020 -82.54142 18 ft 32 kts 181°
2026-04-25 23:12 27.98440 -82.54160 18 ft 133 kts 182°
2026-04-25 23:12 27.97247 -82.54211 295 ft 193 kts 182°
2026-04-25 23:12 27.95798 -82.54277 1035 ft 228 kts 182°
2026-04-25 23:12 27.94263 -82.54417 2029 ft 233 kts 188°
2026-04-25 23:13 27.92662 -82.54745 3424 ft 243 kts 191°
2026-04-25 23:13 27.91033 -82.55087 4951 ft 244 kts 189°
2026-04-25 23:13 27.89375 -82.55391 6056 ft 252 kts 188°
2026-04-25 23:13 27.87603 -82.55688 6041 ft 259 kts 188°
2026-04-25 23:14 27.85848 -82.55968 6020 ft 244 kts 188°
2026-04-25 23:14 27.84192 -82.56229 5958 ft 238 kts 188°
2026-04-25 23:14 27.82546 -82.56492 5922 ft 236 kts 188°
2026-04-25 23:14 27.80916 -82.56754 5925 ft 237 kts 188°
2026-04-25 23:15 27.79290 -82.57016 6156 ft 235 kts 188°
2026-04-25 23:15 27.77656 -82.57262 6529 ft 239 kts 185°
2026-04-25 23:15 27.76001 -82.57179 6894 ft 240 kts 166°
2026-04-25 23:15 27.74428 -82.56503 7280 ft 241 kts 154°
2026-04-25 23:16 27.72916 -82.55667 7654 ft 243 kts 154°
2026-04-25 23:16 27.71376 -82.54855 8029 ft 244 kts 155°
2026-04-25 23:16 27.69828 -82.54094 8400 ft 245 kts 156°
2026-04-25 23:16 27.68230 -82.53335 8779 ft 247 kts 157°
2026-04-25 23:17 27.66634 -82.52583 9182 ft 259 kts 157°
2026-04-25 23:17 27.64909 -82.51770 9950 ft 280 kts 157°
2026-04-25 23:17 27.63061 -82.50897 10845 ft 293 kts 157°
2026-04-25 23:17 27.61154 -82.49993 11862 ft 305 kts 157°
2026-04-25 23:18 27.59190 -82.49062 12894 ft 314 kts 157°
2026-04-25 23:18 27.57153 -82.48077 13876 ft 324 kts 154°
2026-04-25 23:18 27.55144 -82.46964 14942 ft 327 kts 152°
2026-04-25 23:18 27.53128 -82.45770 15993 ft 328 kts 151°
2026-04-25 23:19 27.51112 -82.44543 16948 ft 332 kts 151°
2026-04-25 23:19 27.48982 -82.43241 18013 ft 332 kts 151°
2026-04-25 23:19 27.47076 -82.42082 18914 ft 333 kts 151°
2026-04-25 23:19 27.45048 -82.40857 19838 ft 334 kts 151°
2026-04-25 23:20 27.42989 -82.39618 20764 ft 334 kts 151°
2026-04-25 23:20 27.40978 -82.38412 21650 ft 333 kts 151°
2026-04-25 23:20 27.38880 -82.37154 21952 ft 350 kts 152°
2026-04-25 23:20 27.36633 -82.35809 21331 ft 382 kts 152°
2026-04-25 23:21 27.34229 -82.34370 20270 ft 401 kts 152°
2026-04-25 23:21 27.31755 -82.32890 19193 ft 408 kts 152°
2026-04-25 23:21 27.29231 -82.31381 18110 ft 412 kts 152°
2026-04-25 23:21 27.26691 -82.29862 17029 ft 416 kts 152°
2026-04-25 23:22 27.24145 -82.28341 15960 ft 418 kts 152°
2026-04-25 23:22 27.21622 -82.26833 15087 ft 414 kts 152°
2026-04-25 23:22 27.19090 -82.25320 14267 ft 408 kts 152°
2026-04-25 23:23 27.14686 -82.22723 16396 ft 324 kts 153°
2026-04-25 23:23 27.12756 -82.21606 17517 ft 318 kts 153°
2026-04-25 23:23 27.10674 -82.20364 17243 ft 351 kts 150°
2026-04-25 23:23 27.08584 -82.18821 17196 ft 373 kts 142°
2026-04-25 23:24 27.06577 -82.16911 17195 ft 383 kts 137°
2026-04-25 23:24 27.04637 -82.14821 17193 ft 383 kts 135°
2026-04-25 23:24 27.02772 -82.12699 17193 ft 383 kts 134°
2026-04-25 23:24 27.00904 -82.10541 17193 ft 383 kts 134°
2026-04-25 23:25 26.99042 -82.08405 17193 ft 383 kts 134°
2026-04-25 23:25 26.97184 -82.06295 17193 ft 383 kts 135°
2026-04-25 23:25 26.95287 -82.04163 17193 ft 383 kts 135°
2026-04-25 23:25 26.93407 -82.02067 17193 ft 383 kts 135°
2026-04-25 23:26 26.91510 -81.99958 17193 ft 383 kts 135°
2026-04-25 23:26 26.89623 -81.97867 17193 ft 383 kts 135°
2026-04-25 23:26 26.87728 -81.95769 17193 ft 383 kts 135°
2026-04-25 23:26 26.85821 -81.93657 17193 ft 383 kts 135°
2026-04-25 23:27 26.83969 -81.91535 17193 ft 383 kts 132°
2026-04-25 23:27 26.82346 -81.89198 17192 ft 383 kts 122°
2026-04-25 23:27 26.81060 -81.86563 17195 ft 383 kts 115°
2026-04-25 23:27 26.79988 -81.83852 17208 ft 383 kts 112°
2026-04-25 23:28 26.79006 -81.81100 17250 ft 383 kts 111°
2026-04-25 23:28 26.78047 -81.78306 17367 ft 383 kts 110°
2026-04-25 23:28 26.77105 -81.75532 17624 ft 384 kts 110°
2026-04-25 23:28 26.76150 -81.72738 18141 ft 386 kts 111°
2026-04-25 23:29 26.75165 -81.69885 17363 ft 423 kts 111°
2026-04-25 23:29 26.74082 -81.66842 17196 ft 409 kts 112°
2026-04-25 23:29 26.73016 -81.63989 17054 ft 392 kts 113°
2026-04-25 23:29 26.71950 -81.61222 17053 ft 381 kts 113°
2026-04-25 23:30 26.70899 -81.58507 17055 ft 382 kts 113°
2026-04-25 23:30 26.69857 -81.55790 17054 ft 382 kts 112°
2026-04-25 23:30 26.68812 -81.53027 17053 ft 382 kts 112°
2026-04-25 23:30 26.67969 -81.50236 17052 ft 382 kts 103°
2026-04-25 23:31 26.67754 -81.47273 17054 ft 382 kts 85°
2026-04-25 23:31 26.68244 -81.44383 17059 ft 383 kts 76°
2026-04-25 23:31 26.68941 -81.41512 17053 ft 382 kts 74°
2026-04-25 23:31 26.69683 -81.38648 17053 ft 382 kts 73°
2026-04-25 23:32 26.70420 -81.35791 17053 ft 382 kts 74°
2026-04-25 23:32 26.71129 -81.32964 17054 ft 382 kts 75°
2026-04-25 23:32 26.71831 -81.30082 17054 ft 382 kts 75°
2026-04-25 23:32 26.72519 -81.27195 17054 ft 382 kts 75°
2026-04-25 23:33 26.73186 -81.24357 17054 ft 382 kts 75°
2026-04-25 23:33 26.73860 -81.21470 17054 ft 382 kts 75°
2026-04-25 23:33 26.74530 -81.18592 17087 ft 382 kts 75°
2026-04-25 23:33 26.75196 -81.15723 16942 ft 378 kts 75°
2026-04-25 23:34 26.75842 -81.12942 16343 ft 373 kts 75°
2026-04-25 23:34 26.76498 -81.10115 15588 ft 372 kts 75°
2026-04-25 23:34 26.77137 -81.07361 14902 ft 369 kts 75°
2026-04-25 23:34 26.77781 -81.04584 14219 ft 366 kts 75°
2026-04-25 23:35 26.78382 -81.01834 13544 ft 363 kts 78°
2026-04-25 23:35 26.78772 -80.99107 13176 ft 353 kts 84°
2026-04-25 23:35 26.78971 -80.96358 13267 ft 357 kts 86°
2026-04-25 23:35 26.79088 -80.93582 13265 ft 361 kts 88°
2026-04-25 23:36 26.79178 -80.90788 13267 ft 361 kts 88°
2026-04-25 23:36 26.79239 -80.88886 13267 ft 361 kts 88°
2026-04-25 23:36 26.79366 -80.85228 12876 ft 352 kts 88°
2026-04-25 23:36 26.79471 -80.82470 12123 ft 353 kts 87°
2026-04-25 23:37 26.79582 -80.79737 11306 ft 351 kts 87°
2026-04-25 23:37 26.79624 -80.77068 11018 ft 344 kts 92°
2026-04-25 23:37 26.79279 -80.74392 11015 ft 349 kts 103°
2026-04-25 23:37 26.78559 -80.71824 10806 ft 342 kts 110°
2026-04-25 23:38 26.77690 -80.69362 10126 ft 342 kts 112°
2026-04-25 23:38 26.76855 -80.67132 9526 ft 341 kts 112°
2026-04-25 23:38 26.75964 -80.64709 9076 ft 336 kts 111°
2026-04-25 23:38 26.75106 -80.62289 9020 ft 338 kts 111°
2026-04-25 23:39 26.74265 -80.59846 8892 ft 333 kts 110°
2026-04-25 23:39 26.73450 -80.57447 8290 ft 332 kts 110°
2026-04-25 23:39 26.72614 -80.55031 7637 ft 332 kts 111°
2026-04-25 23:39 26.71794 -80.52654 6999 ft 330 kts 109°
2026-04-25 23:40 26.71117 -80.50196 6373 ft 329 kts 105°
2026-04-25 23:40 26.70572 -80.47745 6348 ft 317 kts 103°
2026-04-25 23:40 26.70241 -80.45325 6576 ft 317 kts 91°
2026-04-25 23:40 26.70588 -80.42961 6134 ft 302 kts 68°
2026-04-25 23:41 26.71497 -80.40936 5723 ft 288 kts 68°
2026-04-25 23:41 26.71800 -80.38834 5655 ft 264 kts 90°
2026-04-25 23:41 26.71503 -80.36872 5430 ft 246 kts 107°
2026-04-25 23:41 26.71053 -80.35127 5197 ft 222 kts 105°
2026-04-25 23:42 26.70672 -80.33515 4831 ft 211 kts 104°
2026-04-25 23:42 26.70446 -80.31895 4379 ft 205 kts 103°
2026-04-25 23:42 26.70118 -80.30379 3907 ft 205 kts 100°
2026-04-25 23:42 26.69772 -80.28857 3476 ft 200 kts 104°
2026-04-25 23:43 26.69469 -80.27391 3144 ft 182 kts 101°
2026-04-25 23:43 26.69276 -80.26115 3302 ft 162 kts 99°
2026-04-25 23:43 26.69111 -80.24822 3360 ft 173 kts 97°
2026-04-25 23:43 26.69004 -80.23458 3357 ft 176 kts 95°
2026-04-25 23:44 26.68900 -80.22066 3064 ft 180 kts 94°
2026-04-25 23:44 26.68829 -80.20726 2610 ft 167 kts 94°
2026-04-25 23:44 26.68761 -80.19484 2237 ft 157 kts 94°
2026-04-25 23:44 26.68680 -80.18263 1496 ft 170 kts 94°
2026-04-25 23:45 26.68618 -80.17011 1257 ft 150 kts 93°
2026-04-25 23:45 26.68563 -80.15882 1035 ft 141 kts 93°
2026-04-25 23:45 26.68510 -80.14802 862 ft 140 kts 93°
2026-04-25 23:45 26.68461 -80.13712 735 ft 141 kts 92°
2026-04-25 23:46 26.68409 -80.12629 464 ft 135 kts 93°
2026-04-25 23:46 26.68361 -80.11573 264 ft 135 kts 93°
2026-04-25 23:46 26.68310 -80.10532 80 ft 131 kts 92°
2026-04-25 23:46 26.68265 -80.09546 19 ft 121 kts 93°
2026-04-25 23:47 26.68234 -80.08915 18 ft 1 kts 93°
2026-04-25 23:47 26.68234 -80.08914 18 ft 3 kts 93°
2026-04-25 23:47 26.68233 -80.08743 18 ft 34 kts 80°
2026-04-25 23:47 26.68276 -80.08659 18 ft 11 kts 38°
2026-04-25 23:48 26.68283 -80.08654 18 ft 0 kts 26°
2026-04-25 23:49 26.68317 -80.08656 18 ft 20 kts 335°
2026-04-25 23:50 26.68372 -80.08837 18 ft 26 kts 330°
2026-04-25 23:50 26.68455 -80.08853 18 ft 7 kts 322°
2026-04-25 23:50 26.68499 -80.08884 18 ft 7 kts 337°
2026-04-25 23:50 26.68522 -80.08890 18 ft 0 kts 343°